Hourly Weather Konjic

Today, 13 April, Tuesday

Time Temperature Precipitation Wind Pressure Humidity
00:00 +8°C° 0 mm 1 mps 697 mmHg 79%
01:00 +8°C° 0 mm 1 mps 697 mmHg 82%
02:00 +8°C° 0.1 mm 1 mps 697 mmHg 82%
03:00 +8°C° 0.1 mm 1 mps 697 mmHg 83%
04:00 +6°C° 0.1 mm 2 mps 696 mmHg 84%
05:00 +7°C° 0.5 mm 1 mps 696 mmHg 87%
06:00 +6°C° 0.5 mm 1 mps 696 mmHg 91%
07:00 +6°C° 0.5 mm 1 mps 696 mmHg 95%
08:00 +6°C° 0.8 mm 1 mps 696 mmHg 95%
09:00 +6°C° 0.8 mm 1 mps 696 mmHg 95%
10:00 +6°C° 0.8 mm 1 mps 696 mmHg 94%
11:00 +6°C° 2.9 mm 1 mps 696 mmHg 96%
12:00 +5°C° 2.9 mm 1 mps 696 mmHg 97%
13:00 +5°C° 2.9 mm 1 mps 696 mmHg 98%
14:00 +5°C° 0.8 mm 1 mps 696 mmHg 98%
15:00 +5°C° 0.8 mm 1 mps 696 mmHg 98%
16:00 +4°C° 0.8 mm 2 mps 695 mmHg 98%
17:00 +3°C° 0.8 mm 2 mps 696 mmHg 98%
18:00 +2°C° 0.8 mm 2 mps 696 mmHg 98%
19:00 +2°C° 0.8 mm 2 mps 696 mmHg 97%
20:00 +1°C° 0.8 mm 2 mps 696 mmHg 97%
21:00 +1°C° 0.8 mm 2 mps 696 mmHg 97%
22:00 -1°C° 0.8 mm 2 mps 697 mmHg 97%
23:00 -1°C° 0.9 mm 2 mps 697 mmHg 97%

Tomorrow, 14 April, Wednesday

Time Temperature Precipitation Wind Pressure Humidity
00:00 -1°C° 0.9 mm 2 mps 697 mmHg 97%
01:00 -2°C° 0.9 mm 2 mps 697 mmHg 97%
02:00 -2°C° 0.4 mm 2 mps 697 mmHg 96%
03:00 -2°C° 0.4 mm 2 mps 697 mmHg 96%
04:00 -2°C° 0.4 mm 2 mps 697 mmHg 95%
05:00 -2°C° 0 mm 2 mps 697 mmHg 94%
06:00 -2°C° 0 mm 2 mps 697 mmHg 92%
07:00 -1°C° 0 mm 2 mps 697 mmHg 90%
08:00 -1°C° 0 mm 2 mps 697 mmHg 87%
09:00 0°C° 0 mm 3 mps 698 mmHg 84%
10:00 +1°C° 0 mm 3 mps 698 mmHg 81%
11:00 +1°C° 0.1 mm 3 mps 698 mmHg 81%
12:00 +2°C° 0.1 mm 3 mps 698 mmHg 80%
13:00 +2°C° 0.1 mm 3 mps 697 mmHg 80%
14:00 +2°C° 0.1 mm 3 mps 697 mmHg 78%
15:00 +2°C° 0.1 mm 3 mps 697 mmHg 77%
16:00 +2°C° 0.1 mm 3 mps 697 mmHg 76%
17:00 +2°C° 0 mm 2 mps 698 mmHg 81%
18:00 -1°C° 0 mm 2 mps 698 mmHg 86%
19:00 -2°C° 0 mm 2 mps 698 mmHg 92%
20:00 -2°C° 0.1 mm 2 mps 698 mmHg 93%
21:00 -2°C° 0.1 mm 2 mps 699 mmHg 93%
22:00 -2°C° 0.1 mm 2 mps 699 mmHg 94%
23:00 -3°C° 0 mm 2 mps 699 mmHg 94%

Day after tomorrow, 15 April, Thursday

Time Temperature Precipitation Wind Pressure Humidity
00:00 -3°C° 0 mm 2 mps 699 mmHg 94%
01:00 -4°C° 0 mm 2 mps 699 mmHg 94%
02:00 -4°C° 0 mm 2 mps 699 mmHg 94%
03:00 -5°C° 0 mm 2 mps 699 mmHg 94%
04:00 -6°C° 0 mm 2 mps 699 mmHg 94%
05:00 -4°C° 0 mm 2 mps 699 mmHg 90%
06:00 -3°C° 0 mm 2 mps 699 mmHg 87%
07:00 -2°C° 0 mm 2 mps 699 mmHg 83%
08:00 +1°C° 0 mm 2 mps 699 mmHg 77%
09:00 +2°C° 0 mm 2 mps 699 mmHg 71%
10:00 +3°C° 0 mm 2 mps 699 mmHg 65%
11:00 +4°C° 0 mm 2 mps 699 mmHg 64%
12:00 +5°C° 0 mm 2 mps 698 mmHg 62%
13:00 +5°C° 0 mm 2 mps 698 mmHg 60%
14:00 +5°C° 0 mm 2 mps 698 mmHg 60%
15:00 +5°C° 0 mm 2 mps 698 mmHg 61%
16:00 +5°C° 0 mm 2 mps 697 mmHg 61%
17:00 +3°C° 0 mm 2 mps 698 mmHg 69%
18:00 +1°C° 0 mm 2 mps 698 mmHg 77%
19:00 -1°C° 0 mm 2 mps 698 mmHg 85%
20:00 0°C° 0 mm 1 mps 698 mmHg 86%
21:00 0°C° 0 mm 1 mps 698 mmHg 86%
22:00 -1°C° 0 mm 1 mps 699 mmHg 87%
23:00 -1°C° 0 mm 1 mps 698 mmHg 86%

16 April, Friday

Time Temperature Precipitation Wind Pressure Humidity
00:00 -1°C° 0 mm 1 mps 698 mmHg 86%
01:00 -1°C° 0 mm 1 mps 698 mmHg 85%
02:00 -1°C° 0 mm 1 mps 698 mmHg 85%
03:00 -1°C° 0 mm 1 mps 698 mmHg 84%
04:00 -4°C° 0 mm 2 mps 698 mmHg 84%
05:00 0°C° 0 mm 1 mps 698 mmHg 79%
06:00 +1°C° 0 mm 1 mps 698 mmHg 75%
07:00 +3°C° 0 mm 1 mps 698 mmHg 70%
08:00 +4°C° 0 mm 1 mps 698 mmHg 65%
09:00 +5°C° 0 mm 2 mps 698 mmHg 60%
10:00 +6°C° 0 mm 2 mps 698 mmHg 54%
11:00 +7°C° 0 mm 2 mps 697 mmHg 52%
12:00 +8°C° 0 mm 2 mps 697 mmHg 51%
13:00 +10°C° 0 mm 1 mps 697 mmHg 49%
14:00 +8°C° 0 mm 2 mps 696 mmHg 50%
15:00 +8°C° 0 mm 2 mps 696 mmHg 51%
16:00 +8°C° 0 mm 2 mps 696 mmHg 51%
17:00 +6°C° 0 mm 2 mps 696 mmHg 62%
18:00 +4°C° 0 mm 2 mps 696 mmHg 72%
19:00 +2°C° 0 mm 2 mps 696 mmHg 83%
20:00 +2°C° 0 mm 2 mps 696 mmHg 84%
21:00 +1°C° 0 mm 2 mps 696 mmHg 85%
22:00 +1°C° 0 mm 2 mps 696 mmHg 86%
23:00 +1°C° 0 mm 2 mps 696 mmHg 86%

17 April, Saturday

Time Temperature Precipitation Wind Pressure Humidity
00:00 +1°C° 0 mm 2 mps 696 mmHg 86%
01:00 -1°C° 0 mm 2 mps 696 mmHg 86%
02:00 -1°C° 0 mm 2 mps 695 mmHg 86%
03:00 +1°C° 0 mm 2 mps 695 mmHg 86%
04:00 +1°C° 0 mm 2 mps 695 mmHg 86%
05:00 +1°C° 0 mm 2 mps 695 mmHg 82%
06:00 +2°C° 0 mm 2 mps 694 mmHg 78%
07:00 +3°C° 0 mm 2 mps 694 mmHg 74%
08:00 +4°C° 0 mm 2 mps 694 mmHg 68%
09:00 +5°C° 0 mm 2 mps 694 mmHg 63%
10:00 +7°C° 0 mm 3 mps 694 mmHg 58%
11:00 +7°C° 0 mm 3 mps 693 mmHg 57%
12:00 +8°C° 0 mm 3 mps 693 mmHg 57%
13:00 +8°C° 0 mm 3 mps 693 mmHg 56%
14:00 +8°C° 0.1 mm 3 mps 693 mmHg 62%
15:00 +7°C° 0.1 mm 3 mps 693 mmHg 68%
16:00 +7°C° 0.1 mm 3 mps 693 mmHg 73%
17:00 +5°C° 0.1 mm 2 mps 693 mmHg 80%
18:00 +4°C° 0.1 mm 2 mps 694 mmHg 87%
19:00 +3°C° 0.1 mm 2 mps 694 mmHg 94%
20:00 +3°C° 0 mm 2 mps 694 mmHg 94%
21:00 +3°C° 0 mm 2 mps 694 mmHg 94%
22:00 +2°C° 0 mm 2 mps 694 mmHg 95%
23:00 +2°C° 0 mm 2 mps 694 mmHg 94%

18 April, Sunday

Time Temperature Precipitation Wind Pressure Humidity
00:00 +2°C° 0 mm 2 mps 694 mmHg 94%
01:00 +2°C° 0 mm 2 mps 694 mmHg 94%
02:00 +2°C° 0 mm 2 mps 694 mmHg 94%
03:00 +2°C° 0 mm 2 mps 694 mmHg 95%
04:00 +2°C° 0 mm 2 mps 694 mmHg 95%
05:00 +2°C° 0 mm 2 mps 694 mmHg 93%
06:00 +3°C° 0 mm 2 mps 694 mmHg 90%
07:00 +3°C° 0 mm 2 mps 694 mmHg 87%
08:00 +4°C° 0 mm 2 mps 694 mmHg 83%
09:00 +5°C° 0 mm 2 mps 694 mmHg 80%
10:00 +6°C° 0 mm 2 mps 694 mmHg 76%
11:00 +7°C° 0 mm 2 mps 694 mmHg 75%
12:00 +7°C° 0 mm 2 mps 694 mmHg 75%
13:00 +8°C° 0 mm 2 mps 694 mmHg 74%
14:00 +7°C° 0 mm 2 mps 694 mmHg 76%
15:00 +7°C° 0 mm 2 mps 694 mmHg 78%
16:00 +7°C° 0 mm 2 mps 694 mmHg 80%
17:00 +6°C° 0 mm 2 mps 694 mmHg 84%
18:00 +5°C° 0 mm 2 mps 694 mmHg 87%
19:00 +4°C° 0 mm 2 mps 694 mmHg 91%
20:00 +4°C° 0 mm 2 mps 693 mmHg 92%
21:00 +4°C° 0 mm 2 mps 693 mmHg 94%
22:00 +4°C° 0 mm 2 mps 693 mmHg 95%
23:00 +4°C° 0 mm 2 mps 693 mmHg 95%
Show more

We Need Your Consent

Meteoprog and our Service Providers may store and access personal data such as cookies, device identifiers or other similar technologies on your device and process such data to personalise content and ads, as well as provide social media features and to analyse the traffic.

  • Store and/or access information on your device

    Cookies, device identifiers or other information can be stored or accessed on your device for the purposes indicated above.

  • Personalised ads and content, ad and content measurement, audience insights, and products development

    Ads and content can be personalised based on a profile. More data can be added to better personalise ads and content. Ad and content performance can be measured. Insights about the audience who saw the ads and content can be derived. Such data can be used to develop or improve user’s experience, systems and software.

By clicking ‘I Agree’ you will allow the use of indicated cookies, device identifiers, web beacons or other similar technologies. Your settings can be changed in the browser on your device.

For certain purposes, legitimate interests may be relied on, rather than consent. You can read more about this in our Privacy and Cookie Policy.